When you browse on this site, cookies collect data to enhance your experience and personalize the content and advertising you see.
Visit our Privacy Policy to learn more. By continuing to use the site, you agree to this use of cookies and data.
  • In Spain
  • List of Countries
  • For 7 days
  • Water Temperature
  • Weather Map
  • Weather Widgets
  • user-avatar
    Login

    Hourly Weather San Juan

    Today, 27 January, Monday

    Time Temperature Precipitation Wind Pressure Humidity
    00:00 +29°C° 0.4 mm 2 mps 707 mmHg 44%
    01:00 +28°C° 0 mm 2 mps 708 mmHg 47%
    02:00 +28°C° 0 mm 2 mps 707 mmHg 48%
    03:00 +28°C° 0 mm 1 mps 707 mmHg 48%
    04:00 +28°C° 0 mm 1 mps 707 mmHg 48%
    05:00 +28°C° 0 mm 2 mps 707 mmHg 46%
    06:00 +29°C° 0 mm 3 mps 708 mmHg 44%
    07:00 +29°C° 0 mm 3 mps 708 mmHg 41%
    08:00 +30°C° 0 mm 3 mps 708 mmHg 39%
    09:00 +31°C° 0 mm 3 mps 707 mmHg 37%
    10:00 +32°C° 0 mm 2 mps 707 mmHg 35%
    11:00 +34°C° 0 mm 3 mps 706 mmHg 32%
    12:00 +35°C° 0 mm 3 mps 706 mmHg 30%
    13:00 +36°C° 0 mm 3 mps 705 mmHg 27%
    14:00 +37°C° 0 mm 4 mps 705 mmHg 26%
    15:00 +37°C° 0 mm 5 mps 704 mmHg 25%
    16:00 +39°C° 0 mm 6 mps 704 mmHg 24%
    17:00 +36°C° 0.6 mm 6 mps 704 mmHg 28%
    18:00 +34°C° 0.6 mm 7 mps 704 mmHg 32%
    19:00 +33°C° 0.6 mm 7 mps 704 mmHg 36%
    20:00 +32°C° 0.7 mm 7 mps 704 mmHg 38%
    21:00 +32°C° 0.7 mm 6 mps 704 mmHg 39%
    22:00 +30°C° 0.7 mm 5 mps 705 mmHg 41%
    23:00 +30°C° 0 mm 5 mps 704 mmHg 43%

    Tomorrow, 28 January, Tuesday

    Time Temperature Precipitation Wind Pressure Humidity
    00:00 +30°C° 0 mm 4 mps 704 mmHg 44%
    01:00 +29°C° 0 mm 4 mps 703 mmHg 46%
    02:00 +29°C° 0 mm 4 mps 703 mmHg 47%
    03:00 +29°C° 0 mm 3 mps 703 mmHg 47%
    04:00 +28°C° 0 mm 3 mps 703 mmHg 48%
    05:00 +29°C° 0 mm 3 mps 703 mmHg 46%
    06:00 +30°C° 0 mm 3 mps 703 mmHg 44%
    07:00 +30°C° 0 mm 3 mps 703 mmHg 42%
    08:00 +31°C° 0 mm 3 mps 703 mmHg 39%
    09:00 +33°C° 0 mm 3 mps 702 mmHg 36%
    10:00 +35°C° 0 mm 3 mps 702 mmHg 33%
    11:00 +36°C° 0 mm 3 mps 701 mmHg 31%
    12:00 +37°C° 0 mm 3 mps 701 mmHg 28%
    13:00 +38°C° 0 mm 2 mps 700 mmHg 25%
    14:00 +38°C° 0 mm 2 mps 700 mmHg 24%
    15:00 +38°C° 0 mm 2 mps 699 mmHg 22%
    16:00 +39°C° 0 mm 2 mps 699 mmHg 21%
    17:00 +36°C° 0.5 mm 5 mps 699 mmHg 29%
    18:00 +33°C° 0.5 mm 7 mps 699 mmHg 36%
    19:00 +29°C° 0.5 mm 10 mps 699 mmHg 44%
    20:00 +29°C° 0.3 mm 8 mps 700 mmHg 43%
    21:00 +29°C° 0.3 mm 6 mps 701 mmHg 42%
    22:00 +30°C° 0.3 mm 4 mps 701 mmHg 41%
    23:00 +28°C° 0.3 mm 6 mps 701 mmHg 49%

    Day after tomorrow, 29 January, Wednesday

    Time Temperature Precipitation Wind Pressure Humidity
    00:00 +26°C° 0.3 mm 8 mps 701 mmHg 57%
    01:00 +23°C° 0.3 mm 10 mps 702 mmHg 65%
    02:00 +23°C° 0.3 mm 9 mps 702 mmHg 67%
    03:00 +23°C° 0.3 mm 8 mps 702 mmHg 70%
    04:00 +22°C° 0.3 mm 7 mps 703 mmHg 73%
    05:00 +23°C° 0.1 mm 7 mps 703 mmHg 70%
    06:00 +23°C° 0.1 mm 7 mps 704 mmHg 67%
    07:00 +23°C° 0.1 mm 7 mps 705 mmHg 64%
    08:00 +24°C° 0 mm 7 mps 705 mmHg 57%
    09:00 +27°C° 0 mm 7 mps 705 mmHg 50%
    10:00 +28°C° 0 mm 7 mps 706 mmHg 43%
    11:00 +29°C° 0 mm 7 mps 705 mmHg 41%
    12:00 +29°C° 0 mm 7 mps 705 mmHg 40%
    13:00 +30°C° 0 mm 7 mps 705 mmHg 38%
    14:00 +30°C° 0.1 mm 7 mps 705 mmHg 38%
    15:00 +30°C° 0.1 mm 7 mps 705 mmHg 39%
    16:00 +30°C° 0.1 mm 7 mps 705 mmHg 40%
    17:00 +28°C° 0.4 mm 6 mps 705 mmHg 44%
    18:00 +27°C° 0.4 mm 5 mps 705 mmHg 48%
    19:00 +26°C° 0.4 mm 5 mps 705 mmHg 52%
    20:00 +26°C° 0 mm 3 mps 706 mmHg 50%
    21:00 +27°C° 0 mm 2 mps 707 mmHg 48%
    22:00 +27°C° 0 mm 1 mps 707 mmHg 47%
    23:00 +27°C° 0 mm 1 mps 707 mmHg 48%

    30 January, Thursday

    Time Temperature Precipitation Wind Pressure Humidity
    00:00 +26°C° 0 mm 1 mps 707 mmHg 49%
    01:00 +26°C° 0 mm 1 mps 706 mmHg 51%
    02:00 +26°C° 0 mm 1 mps 706 mmHg 52%
    03:00 +25°C° 0 mm 2 mps 706 mmHg 53%
    04:00 +25°C° 0 mm 2 mps 706 mmHg 54%
    05:00 +26°C° 0 mm 3 mps 706 mmHg 51%
    06:00 +27°C° 0 mm 4 mps 707 mmHg 48%
    07:00 +28°C° 0 mm 4 mps 707 mmHg 45%
    08:00 +29°C° 0 mm 5 mps 707 mmHg 41%
    09:00 +30°C° 0 mm 5 mps 707 mmHg 36%
    10:00 +33°C° 0 mm 5 mps 707 mmHg 31%
    11:00 +34°C° 0 mm 6 mps 706 mmHg 28%
    12:00 +35°C° 0 mm 6 mps 706 mmHg 25%
    13:00 +36°C° 0 mm 6 mps 705 mmHg 21%
    14:00 +36°C° 0 mm 6 mps 705 mmHg 20%
    15:00 +36°C° 0 mm 6 mps 704 mmHg 19%
    16:00 +38°C° 0 mm 6 mps 704 mmHg 18%
    17:00 +36°C° 0 mm 5 mps 704 mmHg 20%
    18:00 +35°C° 0 mm 4 mps 704 mmHg 21%
    19:00 +34°C° 0 mm 3 mps 704 mmHg 22%
    20:00 +33°C° 0 mm 3 mps 705 mmHg 24%
    21:00 +32°C° 0 mm 4 mps 705 mmHg 26%
    22:00 +30°C° 0 mm 4 mps 705 mmHg 28%
    23:00 +30°C° 0 mm 4 mps 705 mmHg 30%

    31 January, Friday

    Time Temperature Precipitation Wind Pressure Humidity
    00:00 +29°C° 0 mm 3 mps 705 mmHg 32%
    01:00 +28°C° 0 mm 3 mps 704 mmHg 34%
    02:00 +28°C° 0 mm 3 mps 705 mmHg 35%
    03:00 +27°C° 0 mm 3 mps 705 mmHg 37%
    04:00 +27°C° 0 mm 2 mps 705 mmHg 38%
    05:00 +28°C° 0 mm 3 mps 705 mmHg 36%
    06:00 +29°C° 0 mm 3 mps 706 mmHg 33%
    07:00 +30°C° 0 mm 3 mps 706 mmHg 31%
    08:00 +33°C° 0 mm 3 mps 706 mmHg 28%
    09:00 +34°C° 0 mm 3 mps 706 mmHg 25%
    10:00 +36°C° 0 mm 3 mps 706 mmHg 22%
    11:00 +36°C° 0 mm 3 mps 706 mmHg 20%
    12:00 +37°C° 0 mm 3 mps 705 mmHg 18%
    13:00 +38°C° 0 mm 3 mps 705 mmHg 16%
    14:00 +38°C° 0 mm 3 mps 704 mmHg 15%
    15:00 +38°C° 0 mm 3 mps 704 mmHg 15%
    16:00 +39°C° 0 mm 3 mps 704 mmHg 14%
    17:00 +38°C° 0 mm 3 mps 704 mmHg 16%
    18:00 +37°C° 0 mm 2 mps 704 mmHg 17%
    19:00 +36°C° 0 mm 2 mps 704 mmHg 19%
    20:00 +35°C° 0 mm 2 mps 705 mmHg 21%
    21:00 +34°C° 0 mm 2 mps 705 mmHg 24%
    22:00 +33°C° 0 mm 3 mps 705 mmHg 26%
    23:00 +33°C° 0 mm 3 mps 705 mmHg 27%

    1 February, Saturday

    Time Temperature Precipitation Wind Pressure Humidity
    00:00 +31°C° 0 mm 3 mps 704 mmHg 28%
    01:00 +30°C° 0 mm 4 mps 703 mmHg 28%
    02:00 +30°C° 0 mm 4 mps 703 mmHg 30%
    03:00 +29°C° 0 mm 4 mps 703 mmHg 32%
    04:00 +29°C° 0 mm 3 mps 703 mmHg 33%
    05:00 +30°C° 0 mm 4 mps 703 mmHg 31%
    06:00 +32°C° 0 mm 4 mps 703 mmHg 30%
    07:00 +33°C° 0 mm 4 mps 703 mmHg 28%
    08:00 +34°C° 0 mm 4 mps 703 mmHg 25%
    09:00 +36°C° 0 mm 5 mps 703 mmHg 23%
    10:00 +39°C° 0 mm 5 mps 702 mmHg 20%
    11:00 +40°C° 0 mm 5 mps 702 mmHg 18%
    12:00 +41°C° 0 mm 5 mps 701 mmHg 17%
    13:00 +42°C° 0 mm 5 mps 700 mmHg 15%
    14:00 +42°C° 0 mm 5 mps 700 mmHg 15%
    15:00 +42°C° 0 mm 5 mps 700 mmHg 14%
    16:00 +42°C° 0 mm 5 mps 699 mmHg 14%
    17:00 +41°C° 0 mm 5 mps 699 mmHg 15%
    18:00 +40°C° 0 mm 4 mps 699 mmHg 17%
    19:00 +37°C° 0 mm 4 mps 700 mmHg 19%
    20:00 +37°C° 0 mm 4 mps 700 mmHg 21%
    21:00 +36°C° 0 mm 4 mps 700 mmHg 23%
    22:00 +35°C° 0 mm 4 mps 701 mmHg 25%
    23:00 +34°C° 0 mm 4 mps 701 mmHg 28%
    Show more